COSMOS 1719

Satellite information

Favourite Embed

Satellite Type and Status

PAYLOADIN ORBIT

Key statistics

Satellite COSMOS 1719 at a glance.

Uptime

14589

Days in orbit

Revolutions

≈ 12.5

Per day

Orbit

LEO

Low Earth Orbit

Inclination

74.0

Latest

Satellite identification and parameters

Extended collection of information and parameters for COSMOS 1719.

Object identification

Identified? True

Debris? False

Object name: COSMOS 1719

International designator: 1986-002D

Object number (NORAD): 16452

Object ID (CCSDS): 16452

Country: COMMONWEALTH OF INDEPENDENT STATES (CIS)

Current information (Y/N): Y

RCS size: MEDIUM

Orbital parameters

Period: 115.304 minutes

Inclination: 73.9869 deg

SMA: 7847.332 km

Apoapsis: 1484.503 km

Periapsis: 1453.892 km

RAAN: 208.0747 deg

Eccentricy: 0.00195039

Argument of periapsis: 279.1235 deg

Mean anomaly: 185.9493 deg

Mean motion: 12.48877101 rev/day

Mean motion (dot): 0.00000011 rev/day2

B* drag term: 0.0001839997 1/REarth

Two-line elements (TLE)

Creation date: Dec. 19, 2025, 2:08 a.m.

Reference frame: TEME

Reference center: EARTH

Epoch: Dec. 18, 2025, 10:10 p.m. UTC

TLE line 0: 0 COSMOS 1719

TLE line 1: 1 16452U 86002D 25352.92412124 .00000011 00000-0 18400-3 0 9994

TLE line 2: 2 16452 73.9869 208.0747 0019504 279.1235 185.9493 12.48877101821007

Live tracking on map

Real-time ground track for satellite COSMOS 1719.

In-orbit conjunctions

There are no conjunctions computed for COSMOS 1719, at the moment. Check back to stay up to date, as we update our databases every day.

Go to all conjunctions

Associated space launch

Military communications satellites

COSMOS 1719 was lifted into orbit during the mission ‘Kosmos-3M | Strela-1M 297-304’, on board a Kosmos-3M space rocket.

The launch took place on Jan. 9, 1986, 2:48 a.m. from 132/2.

For more information about the launch, click the button.

Launch to space Kosmos-3M | Strela-1M 297-304
Kosmos-3M | Strela-1M 297-304

Agency: N/A

Status: Launch Successful

Launch date: Jan. 9, 1986, 2:48 a.m. UTC

Rocket: Kosmos-3M

Launch pad: 132/2

Location: Plesetsk Cosmodrome, Russian Federation

...

Latest news about this satellite

There are no fresh news available about this satellite. Check back as we update our databases every day.


Newsletter sign-up

Weekly statistics, charts and insights to help you stay on top of the space industry.